User: anonymous   Login
Location: Unspecified
(0.0000°N, 0.0000°E)
Time: 21:54:19
(UTC+00:00)
Language:

DANDE - Orbit

View from above orbital plane
View from above orbital plane
View from above satellite
View from above satellite

Ground track
Ground track

The orbit data is extracted from the following two-line orbital elements,

1 39267U 13055C   23083.49062795  .00023182  00000-0  62735-3 0  9991
2 39267  81.0107  15.5163 0634061 285.0270  68.1612 14.36038480490612
Epoch (UTC): 24 March 2023 11:46:30
Eccentricity: 0.0634061
inclination: 81.0107°
perigee height: 318 km
apogee height: 1225 km
right ascension of ascending node: 15.5163°
argument of perigee: 285.0270°
revolutions per day: 14.36038480
mean anomaly at epoch: 68.1612°
orbit number at epoch: 49061

The dashed part of the orbit path shows where the satellite is in the earth's shadow,  

DLR